Regional Weather Roundup
Issued by NWS

Home | Current Version | Previous Version | Graphics & Text | Print | Product List | Glossary Off
Versions: 1 2 3 4 5 6 7 8 9 10 11 12 13 14 15 16 17 18 19 20 21 22 23 24 25 26 27 28 29 30 31 32 33 34 35 36 37 38 39 40 41 42 43 44 45 46 47 48 49 50

000
ASUS43 KLSX 050959
RWRMO

WEATHER SUMMARY FOR MISSOURI
NATIONAL WEATHER SERVICE SPRINGFIELD MO
500 AM CDT TUE MAY 05 2015

NOTE: "FAIR" INDICATES FEW OR NO CLOUDS BELOW 12,000 FEET WITH NO
       SIGNIFICANT WEATHER AND/OR OBSTRUCTIONS TO VISIBILITY.
       CURRENT SKY AND/OR WEATHER CONDITIONS ARE NOT AVAILABLE FOR
       CHILLICOTHE AND FARMINGTON.

MOZ001>031-035>038-043-044-053-054-051100-
...NORTHERN AND WESTERN MISSOURI...

CITY           SKY/WX    TMP DP  RH WIND       PRES   REMARKS
KANSAS CTY INT CLOUDY    60  59  96 NE5       30.08R FOG
KANSAS C DTWN  MOCLDY    64  60  87 S6        30.07R
LEE`S SUMMIT   MOCLDY    61  59  93 SE3       30.09R
ST JOSEPH      FOG       57  56  96 NW3       30.07S VSB 1/2
CHILLICOTHE      N/A     59  58  96 CALM      30.11R
KIRKSVILLE     FOG       57  57 100 CALM      30.10S VSB 1/4

$$
MOZ066>068-077>081-088>096-101>105-051100-
...SOUTHWEST MISSOURI...

CITY           SKY/WX    TMP DP  RH WIND       PRES   REMARKS
SPRINGFIELD    MOCLDY    62  55  77 S7        30.14R
JOPLIN         CLEAR     63  54  72 SE8       30.11S

$$
MOZ032>034-039>042-045>050-055>058-069>072-051100-
...CENTRAL MISSOURI...

CITY           SKY/WX    TMP DP  RH WIND       PRES   REMARKS
COLUMBIA       MOCLDY    64  56  75 SW3       30.12S
JEFFERSON CITY PTCLDY    66  55  67 CALM      30.11S
ROLLA          PTCLDY    60  55  83 S9        30.13F
SEDALIA        CLEAR     63  58  83 S9        30.12R
OSAGE BEACH    CLOUDY    61  54  77 S5        30.13S

$$
MOZ051-052-059>065-051100-
...EAST CENTRAL MISSOURI...

CITY           SKY/WX    TMP DP  RH WIND       PRES   REMARKS
ST LOUIS INTL  MOCLDY    70  54  56 S5        30.14S
SPIRIT OF STL  MOCLDY    62  55  77 S3        30.13R
ST CHARLES     MOCLDY    65  54  67 CALM      30.12S

$$
MOZ072>076-082>087-097>100-106>115-051100-
...SOUTH CENTRAL AND SOUTHEAST MISSOURI...

CITY           SKY/WX    TMP DP  RH WIND       PRES   REMARKS
CAPE GIRARDEAU FAIR      60  53  77 CALM      30.18S
FARMINGTON     MOCLDY    55  52  88 CALM      30.21S
POPLAR BLUFF   PTCLDY    56  53  90 N3        30.17S
WEST PLAINS    CLEAR     54  51  90 CALM      30.18S

$$



USA.gov is the U.S. government's official web portal to all federal, state and local government web resources and services.